{"data":{"norad_id":48671,"epoch":"2026-05-25T05:03:15.693120Z","epoch_age_seconds":56535,"freshness":"FRESH","line1":"1 48671U 21044AK  26145.21059830 -.00000934  00000+0 -20051-4 0  9992","line2":"2 48671  53.1590 118.5295 0001039  75.2730 284.8386 15.29362520275524","mean_motion":15.2936252,"eccentricity":0.0001039,"inclination_deg":53.159,"raan_deg":118.5295,"arg_perigee_deg":75.273,"mean_anomaly_deg":284.8386,"bstar":-2.0051e-5,"rev_number":27552,"period_min":94.156877860457,"perigee_km":477.00445155826,"apogee_km":478.42909797266,"semimajor_km":6855.8537747655,"source":"CELESTRAK","updated_at":"2026-05-25T13:38:16.758946Z"}}